Voltar ao catálogo

PEGASUS DEB

AtivoPO
NORAD 39929·DEBRIS·🇺🇸 United States

Lançado May 19, 1994 de Vandenberg Space Force Base

Loading…

Próximas Passagens (próximas 24 horas)

TLE

EnvelhecendoSource: Space-Track

Época: Sep 8, 2026, 08:07 UTC

1 39929U 94029AGC 26251.33873195  .00001603  00000-0  26784-3 0  9991
2 39929  81.9398 116.5831 0230458 256.5709 100.9711 14.53350520643025

Acompanhe PEGASUS DEB em tempo real com AllMySat

Download on the App Store